Greenview, CA (96037)

5:55 PM PDT on April 25, 2017 (GMT -0700)
Scott Valley Airport (A30) | | Change Station

Elev 2730 ft 41.55 °N, 122.85 °W | Updated 36 seconds ago

Overcast
Overcast
55.8 °F
Feels Like 55.8 °F
N
8.0
Wind Variable Wind from South
Gusts 10.0 mph

Today
High -- | Low -- °F
--% Chance of Precip.
Yesterday
High -- | Low -- °F
Precip. -- in
Pressure 30.01 in
Visibility 10.0 miles
Clouds Clear
Dew Point 46 °F
Humidity 70%
Rainfall 0.00 in
Snow Depth Not available.
6:16 AM 8:03 PM
Waning Crescent, 0% visible
METAR KSIY 252353Z AUTO 25004KT 10SM CLR 13/05 A2998 RMK AO2 SLP162 60000 T01280050 10133 20072 58009
Pressure 30.01 in
Visibility 10.0 miles
Clouds Clear
Dew Point 46 °F
Humidity 70%
Rainfall 0.00 in
Snow Depth Not available.
6:16 AM 8:03 PM
Waning Crescent, 0% visible
METAR KSIY 252353Z AUTO 25004KT 10SM CLR 13/05 A2998 RMK AO2 SLP162 60000 T01280050 10133 20072 58009

Get Severe Weather Alerts

Thanks for signing up!

Be on the lookout for a verification email in your inbox.

You'll start receiving the daily forecast at 8 AM.

×

10-Day Weather Forecast

Almanac

Astronomy

Apr. 25, 2017 Rise Set
Actual Time
Civil Twilight
Nautical Twilight
Astronomical Twilight
Moon
Length of Visible Light
Length of Day
Tomorrow will be .
, % of the Moon is Illuminated

Today's Extremes

State Highs State Lows

Community

WunderPhotos

WunderBlog® & News

Nearby

Air Quality

  Air Quality AQ Index Pollutant
Not available.

Snow Depth

Station Depth Elevation

Earthquake Activity

City Distance Mag. Time & Date
Minimum magnitude displayed is 2.5.

Coastal Water Temperatures

Place Temperature

Stations

Nearby Weather Stations

Station Location Temp. Windchill Dew Point Humidity Wind Precip. Elev Updated Type
                   

Watches & Warnings

There are currently no watches in effect.